Weather Roundup
Issued by NWS Chicago, IL

Home | Current Version | Previous Version | Graphics & Text | Print | Product List | Glossary On
Versions: 1 2 3 4 5 6 7 8 9 10 11 12 13 14 15 16 17 18 19 20 21 22 23 24 25 26 27 28 29 30 31 32 33 34 35 36 37 38 39 40 41 42 43 44 45 46 47 48 49 50
000
NZUS59 KLOT 162106
HRRLOT

CHICAGO AREA WEATHER ROUNDUP
NATIONAL WEATHER SERVICE CHICAGO/ROMEOVILLE IL
400 PM CDT WED APR 16 2014

NOTE: "FAIR" INDICATES FEW OR NO CLOUDS BELOW 12,000 FEET WITH NO
SIGNIFICANT WEATHER AND/OR OBSTRUCTIONS TO VISIBILITY.

* THESE STATIONS ARE NOT UNDER NWS QUALITY CONTROL. THEY ALSO MAY NOT
  REPORT WEATHER SUCH AS PRECIPITATION OR FOG.

ILZ005-006-012>014-019>023-162200-
NORTHEAST ILLINOIS

CITY           SKY/WX    TMP DP  RH WIND       PRES   REMARKS
OHARE          PTSUNNY   52  25  35 SE21G26   30.16F
MIDWAY         PTSUNNY   51  24  34 SE18G33   30.18F
AURORA         SUNNY     52  28  39 SE25G33   30.14F
LANSING*       MOSUNNY   50  23  35 S17G23    30.19F
JOLIET*        SUNNY     52  24  33 SE15G26   30.16F
WAUKEGAN       MOSUNNY   44  27  51 SE17G29   30.17F
DUPAGE AIRPORT SUNNY     52  25  35 SE18G31   30.14F
WHEELING       MOSUNNY   51  26  37 S15G25    30.17F
KANKAKEE*      SUNNY     53  27  37 SE20      30.18F
MORRIS*        SUNNY     54  21  27 S17G29    30.14F
NORTHERLY IS     N/A     48  31  52 SE18        N/A
$$

WIZ051-052-058>065-066-070>072-162200-
SOUTHEAST WISCONSIN

CITY           SKY/WX    TMP DP  RH WIND       PRES   REMARKS
MILWAUKEE      PTSUNNY   44  27  51 SE23G33   30.19F
KENOSHA*       MOSUNNY   46  27  47 SE20G30   30.18F
RACINE*        MOSUNNY   43  28  55 SE21G28   30.21F
BURLINGTON     MOSUNNY   50  25  38 S18G25    30.14F
WAUKESHA       MOSUNNY   45  28  53 SE20G28   30.16F
$$

INZ001>003-010>013-019-020-162200-
NORTHWEST INDIANA

CITY           SKY/WX    TMP DP  RH WIND       PRES   REMARKS
GARY*          MOSUNNY   52  21  30 SE20G35   30.20F
MICHIGAN CITY* NOT AVBL
RENSSELAER*    NOT AVBL
VALPARAISO     MOSUNNY   49  20  31 S17G31    30.22F
$$

LMZ740>746-162200-
SOUTHERN LAKE MICHIGAN

STATION/POSITION TIME  SKY/WX   TEMP WIND        PRES    VSBY
                                AIR  DIR/SP/G
                 (UTC)          (F)  (DEG/KT/KT) (MB)    (MI)
HARRISON CRIB    2100            45  150/ 17/ 24   N/A
BURNHAM HARBOR   2100            49  130/ 19/ 22   N/A
CALUMET HARBOR   2100            48  130/ 16/ 22 1023.1F
BURNS HARBOR     NOT AVBL
MICHIGAN CITY    2100            47  120/ 16/ 22   N/A
$$

ABBREVIATIONS USED IN REMARKS
   TC - TEMPERATURE IN CELSIUS
  WCI - WIND CHILL INDEX
   HX - HEAT INDEX
  VSB - VISIBILITY
$$



USA.gov is the U.S. government's official web portal to all federal, state and local government web resources and services.